Weather History for PASX - September, 2014

Change the Weather History Date:

Tuesday, September 30, 2014

  Actual Average Record
Temperature  
Mean Temperature 37 °F -  
Max Temperature 51 °F 49 °F 60 °F (1952)
Min Temperature 23 °F 35 °F 19 °F (1953)
Degree Days  
Heating Degree Days 28    
Moisture  
Dew Point 21 °F    
Average Humidity 60    
Maximum Humidity 86    
Minimum Humidity 28    
Precipitation  
Precipitation 0.00 in - - ()
Sea Level Pressure  
Sea Level Pressure 30.14 in    
Wind  
Wind Speed 2 mph (ENE)    
Max Wind Speed 8 mph    
Max Gust Speed -    
Visibility 10 miles    
Events      
Averages and records for this station are not official NWS values.
T = Trace of Precipitation, MM = Missing Value Source: NWS Daily Summary

Daily Weather History Graph

Daily Weather History Graph

Search for Another Location

Airport or City:

Trip Planner

Search our weather history database for the weather conditions in past years. The results will help you decide how hot, cold, wet, or windy it might be!

Date:

Astronomy

Sep. 30, 2014 Rise Set
Actual Time 8:08 AM AKDT 7:38 PM AKDT
Civil Twilight 7:26 AM AKDT 8:20 PM AKDT
Nautical Twilight 6:36 AM AKDT 9:09 PM AKDT
Astronomical Twilight 5:43 AM AKDT 10:02 PM AKDT
Moon 3:40 PM AKDT (9/30) 11:05 PM AKDT (9/30)
Length of Visible Light 12h 54m
Length of Day
11h 30m
Waxing Crescent, 39% of the Moon is Illuminated
Sep 30
Waxing Crescent
Oct 1
First Quarter
Oct 8
Full
Oct 15
Last Quarter
Oct 23
New

Hourly Weather History & Observations

Time (AKDT) Temp. Windchill Dew Point Humidity Pressure Visibility Wind Dir Wind Speed Gust Speed Precip Events Conditions
12:16 AM 28.4 °F - 19.4 °F 69% 30.03 in 10.0 mi Calm Calm - N/A   Clear
12:36 AM 26.6 °F - 19.4 °F 74% 30.03 in 10.0 mi Calm Calm - N/A   Clear
12:56 AM 28.4 °F - 21.2 °F 74% 30.04 in 10.0 mi Calm Calm - N/A   Clear
1:16 AM 28.4 °F - 21.2 °F 74% 30.04 in 10.0 mi Calm Calm - N/A   Clear
1:36 AM 26.6 °F - 19.4 °F 74% 30.05 in 10.0 mi Calm Calm - N/A   Clear
1:56 AM 28.4 °F - 21.2 °F 74% 30.06 in 10.0 mi Calm Calm - N/A   Clear
2:16 AM 26.6 °F 21.2 °F 21.2 °F 80% 30.06 in 10.0 mi East 4.6 mph - N/A   Clear
2:36 AM 24.8 °F - 19.4 °F 80% 30.07 in 10.0 mi Calm Calm - N/A   Clear
2:56 AM 26.6 °F - 19.4 °F 74% 30.07 in 10.0 mi Calm Calm - N/A   Clear
3:16 AM 26.6 °F - 21.2 °F 80% 30.08 in 10.0 mi Calm Calm - N/A   Clear
3:36 AM 24.8 °F 20.5 °F 19.4 °F 80% 30.08 in 10.0 mi East 3.5 mph - N/A   Clear
3:56 AM 26.6 °F 22.6 °F 21.2 °F 80% 30.09 in 10.0 mi ENE 3.5 mph - N/A   Clear
4:16 AM 26.6 °F - 21.2 °F 80% 30.09 in 10.0 mi Calm Calm - N/A   Clear
4:36 AM 26.6 °F 21.2 °F 21.2 °F 80% 30.10 in 10.0 mi NE 4.6 mph - N/A   Clear
4:56 AM 26.6 °F 22.6 °F 21.2 °F 80% 30.10 in 10.0 mi East 3.5 mph - N/A   Clear
5:16 AM 26.6 °F 22.6 °F 21.2 °F 80% 30.11 in 10.0 mi ENE 3.5 mph - N/A   Clear
5:36 AM 26.6 °F 21.2 °F 19.4 °F 74% 30.11 in 10.0 mi East 4.6 mph - N/A   Clear
5:56 AM 24.8 °F 17.9 °F 19.4 °F 80% 30.12 in 10.0 mi ENE 5.8 mph - N/A   Clear
6:16 AM 26.6 °F 20.0 °F 21.2 °F 80% 30.12 in 10.0 mi ENE 5.8 mph - N/A   Clear
6:36 AM 26.6 °F 22.6 °F 21.2 °F 80% 30.13 in 10.0 mi ENE 3.5 mph - N/A   Clear
6:56 AM 24.8 °F - 17.6 °F 74% 30.14 in 10.0 mi Calm Calm - N/A   Clear
7:16 AM 24.8 °F - 19.4 °F 80% 30.14 in 10.0 mi Calm Calm - N/A   Clear
7:36 AM 24.8 °F 19.1 °F 21.2 °F 86% 30.15 in 10.0 mi ENE 4.6 mph - N/A   Clear
7:56 AM 24.8 °F 20.5 °F 19.4 °F 80% 30.15 in 10.0 mi ENE 3.5 mph - N/A   Clear
8:16 AM 23.0 °F 17.0 °F 19.4 °F 86% 30.15 in 10.0 mi East 4.6 mph - N/A   Clear
8:36 AM 24.8 °F 19.1 °F 21.2 °F 86% 30.15 in 10.0 mi East 4.6 mph - N/A   Clear
8:56 AM 26.6 °F 22.6 °F 21.2 °F 80% 30.16 in 10.0 mi ENE 3.5 mph - N/A   Clear
9:16 AM 26.6 °F 22.6 °F 23.0 °F 86% 30.16 in 10.0 mi ENE 3.5 mph - N/A   Clear
9:36 AM 28.4 °F 24.6 °F 23.0 °F 80% 30.17 in 10.0 mi ENE 3.5 mph - N/A   Clear
9:56 AM 30.2 °F 24.3 °F 24.8 °F 80% 30.17 in 10.0 mi ENE 5.8 mph - N/A   Clear
10:16 AM 32.0 °F 27.5 °F 24.8 °F 75% 30.18 in 10.0 mi ENE 4.6 mph - N/A   Clear
10:36 AM 33.8 °F 29.6 °F 24.8 °F 70% 30.18 in 10.0 mi ENE 4.6 mph - N/A   Clear
10:56 AM 37.4 °F 34.9 °F 26.6 °F 65% 30.18 in 10.0 mi East 3.5 mph - N/A   Clear
11:16 AM 41.0 °F 37.1 °F 26.6 °F 57% 30.18 in 10.0 mi East 5.8 mph - N/A   Clear
11:36 AM 42.8 °F 38.6 °F 26.6 °F 53% 30.18 in 10.0 mi East 6.9 mph - N/A   Clear
11:56 AM 44.6 °F 40.7 °F 24.8 °F 46% 30.19 in 10.0 mi ESE 6.9 mph - N/A   Clear
12:16 PM 44.6 °F 41.4 °F 21.2 °F 39% 30.19 in 10.0 mi ESE 5.8 mph - N/A   Clear
12:36 PM 46.4 °F 42.9 °F 21.2 °F 37% 30.19 in 10.0 mi East 6.9 mph - N/A   Clear
12:56 PM 46.4 °F 42.9 °F 21.2 °F 37% 30.19 in 10.0 mi East 6.9 mph - N/A   Clear
1:16 PM 46.4 °F 42.4 °F 21.2 °F 37% 30.19 in 10.0 mi ESE 8.1 mph - N/A   Clear
1:36 PM 48.2 °F - 21.2 °F 34% 30.19 in 10.0 mi SE 3.5 mph - N/A   Clear
1:56 PM 48.2 °F - 21.2 °F 34% 30.20 in 10.0 mi Calm Calm - N/A   Clear
2:16 PM 48.2 °F - 21.2 °F 34% 30.20 in 10.0 mi Calm Calm - N/A   Clear
2:36 PM 48.2 °F - 19.4 °F 32% 30.20 in 10.0 mi Calm Calm - N/A   Clear
2:56 PM 48.2 °F - 19.4 °F 32% 30.20 in 10.0 mi Calm Calm - N/A   Clear
3:16 PM 48.2 °F - 19.4 °F 32% 30.20 in 10.0 mi Calm Calm - N/A   Clear
3:36 PM 50.0 °F - 19.4 °F 30% 30.20 in 10.0 mi Calm Calm - N/A   Clear
3:56 PM 50.0 °F - 19.4 °F 30% 30.20 in 10.0 mi SE 3.5 mph - N/A   Clear
4:16 PM 51.8 °F - 21.2 °F 30% 30.20 in 10.0 mi Calm Calm - N/A   Clear
4:36 PM 50.0 °F - 17.6 °F 28% 30.20 in 10.0 mi Calm Calm - N/A   Clear
4:56 PM 50.0 °F - 19.4 °F 30% 30.20 in 10.0 mi Calm Calm - N/A   Clear
5:16 PM 51.8 °F - 19.4 °F 28% 30.20 in 10.0 mi Calm Calm - N/A   Clear
5:36 PM 51.8 °F - 19.4 °F 28% 30.20 in 10.0 mi Calm Calm - N/A   Clear
5:56 PM 51.8 °F - 28.4 °F 41% 29.88 in 10.0 mi NNW 8.1 mph - N/A   Partly Cloudy
6:16 PM 51.8 °F - 28.4 °F 41% 29.88 in 10.0 mi North 4.6 mph - N/A   Clear
6:36 PM 50.0 °F - 26.6 °F 40% 29.89 in 10.0 mi NNE 5.8 mph - N/A   Clear
6:56 PM 50.0 °F - 19.4 °F 30% 30.21 in 10.0 mi Calm Calm - N/A   Clear
7:16 PM 46.4 °F - 19.4 °F 34% 30.22 in 10.0 mi Calm Calm - N/A   Clear
7:56 PM 41.0 °F - 21.2 °F 45% 30.23 in 10.0 mi Calm Calm - N/A   Clear
8:16 PM 35.6 °F 32.8 °F 23.0 °F 60% 30.23 in 10.0 mi East 3.5 mph - N/A   Clear
8:36 PM 35.6 °F - 21.2 °F 56% 30.23 in 10.0 mi Calm Calm - N/A   Clear
8:56 PM 44.6 °F 42.2 °F 23.0 °F 43% 29.95 in 10.0 mi WNW 4.6 mph - N/A   Clear
9:16 PM 30.2 °F - 19.4 °F 64% 30.24 in 10.0 mi Calm Calm - N/A   Clear
9:36 PM 30.2 °F - 19.4 °F 64% 30.24 in 10.0 mi Calm Calm - N/A   Clear
9:56 PM 30.2 °F - 19.4 °F 64% 30.24 in 10.0 mi Calm Calm - N/A   Clear
10:16 PM 28.4 °F - 19.4 °F 69% 30.24 in 10.0 mi Calm Calm - N/A   Clear
10:36 PM 28.4 °F - 19.4 °F 69% 30.25 in 10.0 mi Calm Calm - N/A   Clear
10:56 PM 28.4 °F 24.6 °F 19.4 °F 69% 30.25 in 10.0 mi ENE 3.5 mph - N/A   Clear
11:16 PM 30.2 °F - 21.2 °F 69% 30.00 in 10.0 mi Calm Calm - N/A   Clear
11:36 PM 26.6 °F - 19.4 °F 74% 30.25 in 10.0 mi Calm Calm - N/A   Clear
11:56 PM 28.4 °F - 21.2 °F 74% 30.01 in 10.0 mi Calm Calm - N/A   Clear